Location: Alpine
(43.1636°N, 111.0180°W)
Time: 04:28:46
(UTC+00:00)

Tiros 1 despin weight - Pass Details

Date: 05 June 2022
Orbit: 591 x 639 km, 48.2° (Epoch: 30 June)

Event Time Altitude Azimuth Distance (km) Brightness Sun altitude
Rises 02:16:25 0° 293° (WNW) 2,881 ? 6.0°
Reaches altitude 10° 02:18:45 10° 296° (WNW) 1,966 ? 5.7°
Maximum altitude 02:23:15 69° 20° (NNE) 650 ? 4.9°
Drops below altitude 10° 02:27:40 10° 104° (ESE) 1,932 ? 4.2°
Sets 02:29:57 0° 107° (ESE) 2,827 ? 3.8°
